This is the latest recevied weather packets stored in our database for station/object KE8ZLU. If no packets are shown the sender has not sent any weather packets the latest 1 day(s).
| Time | Temp. | Humidity | Pressure | Rain* | Wind** | Luminosity | Snow |
|---|---|---|---|---|---|---|---|
| 1778093133 | 10.56° C | 46% | 1014.4 hPa | 0 mm | - | 931 W/m² | - |
| 1778092830 | 10.56° C | 50% | 1014.4 hPa | 0 mm | - | 251 W/m² | - |
| 1778091920 | 10.56° C | 47% | 1014.4 hPa | 0 mm | - | 367 W/m² | - |
| 1778091617 | 10° C | 48% | 1014.3 hPa | 0 mm | - | 225 W/m² | - |
| 1778091315 | 11.11° C | 47% | 1014.2 hPa | 0 mm | - | 193 W/m² | - |
| 1778090101 | 10° C | 49% | 1014.3 hPa | 0 mm | - | 188 W/m² | - |
| 1778089192 | 10° C | 49% | 1014.5 hPa | 0 mm | - | 307 W/m² | - |
| 1778088890 | 10° C | 47% | 1014.4 hPa | 0 mm | - | 334 W/m² | - |
| 1778087980 | 10° C | 48% | 1014.8 hPa | 0 mm | - | 561 W/m² | - |
| 1778087072 | 10° C | 50% | 1014.7 hPa | 0 mm | - | 365 W/m² | - |
| 1778086770 | 9.44° C | 48% | 1014.6 hPa | 0 mm | - | 305 W/m² | - |
| 1778085861 | 9.44° C | 49% | 1014.8 hPa | 0 mm | - | 330 W/m² | - |
| 1778084344 | 9.44° C | 51% | 1014.4 hPa | 0 mm | - | 343 W/m² | - |
| 1778083734 | 9.44° C | 49% | 1014.4 hPa | 0 mm | - | 539 W/m² | - |
| 1778081394 | 8.89° C | 52% | 1014.6 hPa | 0 mm | - | 547 W/m² | - |
| 1778080789 | 8.89° C | 57% | 1014.6 hPa | 0 mm | - | 416 W/m² | - |
| 1778080486 | 8.89° C | 60% | 1014.4 hPa | 0 mm | - | 419 W/m² | - |
| 1778079879 | 8.89° C | 56% | 1014.4 hPa | 0 mm | - | 588 W/m² | - |
| 1778078062 | 8.89° C | 55% | 1014.4 hPa | 0 mm | - | 509 W/m² | - |
| 1778077760 | 8.89° C | 57% | 1014.2 hPa | 0 mm | - | 440 W/m² | - |
| 1778077458 | 8.33° C | 60% | 1014.3 hPa | 0 mm | - | 444 W/m² | - |
| 1778075642 | 7.78° C | 62% | 1013.7 hPa | 0 mm | - | 451 W/m² | - |
| 1778075338 | 7.78° C | 60% | 1013.6 hPa | 0 mm | - | 233 W/m² | - |
| 1778074428 | 7.22° C | 62% | 1013.6 hPa | 0 mm | - | 240 W/m² | - |
| 1778074125 | 7.22° C | 62% | 1013.8 hPa | 0 mm | - | 240 W/m² | - |
* Rain latest hour (hover to see other rain measurements)
** Current wind speed in m/s (hover to see current wind gust speed)